Ottumwa, IA

10:10 PM CST on November 13, 2019 (GMT -0600)
Ottumwa Industrial

Weather History for KOTM - October, 2019

Change the Weather History Date:

Wednesday, October 23, 2019

  Actual Average Record
Temperature  
Mean Temperature 47 °F 50 °F  
Max Temperature 60 °F 61 °F 83 °F (1963)
Min Temperature 34 °F 39 °F 21 °F (1936)
Degree Days  
Heating Degree Days 18 15  
Month to date heating degree days 310 267  
Since 1 July heating degree days 326 388  
Cooling Degree Days 0 0  
Month to date cooling degree days 16 9  
Year to date cooling degree days 1095 936  
Moisture  
Dew Point 37 °F    
Average Humidity 67    
Maximum Humidity 86    
Minimum Humidity 47    
Precipitation  
Precipitation T in 0.10 in 1.55 in (2000)
Month to date precipitation 2.06 2.12  
Year to date precipitation 38.26 32.61  
Sea Level Pressure  
Sea Level Pressure 29.94 in    
Wind  
Wind Speed 8 mph (West)    
Max Wind Speed 21 mph    
Max Gust Speed 28 mph    
Visibility 10 miles    
Events      
T = Trace of Precipitation, MM = Missing Value Source: NWS Daily Summary

Daily Weather History Graph

Daily Weather History Graph

Search for Another Location

Airport or City:

Astronomy

Oct. 23, 2019 Rise Set
Actual Time 7:30 AM CDT 6:17 PM CDT
Civil Twilight 7:02 AM CDT 6:45 PM CDT
Nautical Twilight 6:29 AM CDT 7:17 PM CDT
Astronomical Twilight 5:57 AM CDT 7:49 PM CDT
Moon 1:45 AM CDT (10/23) 4:11 PM CDT (10/23)
Length of Visible Light 11h 43m
Length of Day
10h 47m
Waning Crescent, 26% of the Moon is Illuminated
Oct 23
Waning Crescent
Oct 27
New
Nov 4
First Quarter
Nov 12
Full
Nov 19
Last Quarter

Hourly Weather History & Observations

Time (CDT) Temp. Windchill Dew Point Humidity Pressure Visibility Wind Dir Wind Speed Gust Speed Precip Events Conditions
12:53 AM 36.0 °F 31.1 °F 30.0 °F 79% 29.88 in 10.0 mi SSW 5.8 mph - N/A   Clear
1:53 AM 36.0 °F 32.1 °F 30.0 °F 79% 29.88 in 10.0 mi SSW 4.6 mph - N/A   Clear
2:53 AM 34.0 °F 29.8 °F 28.9 °F 82% 29.88 in 10.0 mi SSW 4.6 mph - N/A   Clear
3:53 AM 36.0 °F 30.3 °F 30.9 °F 82% 29.87 in 10.0 mi SSW 6.9 mph - N/A   Clear
4:53 AM 37.9 °F - 33.1 °F 83% 29.88 in 10.0 mi Calm Calm - N/A   Mostly Cloudy
5:53 AM 41.0 °F 39.0 °F 35.1 °F 79% 29.88 in 10.0 mi South 3.5 mph - N/A   Overcast
6:53 AM 41.0 °F - 36.0 °F 82% 29.88 in 10.0 mi Calm Calm - 0.00 in   Overcast
7:53 AM 41.0 °F 39.0 °F 37.9 °F 89% 29.88 in 10.0 mi East 3.5 mph - N/A   Overcast
8:53 AM 41.0 °F 37.1 °F 37.0 °F 86% 29.90 in 10.0 mi East 5.8 mph - N/A   Mostly Cloudy
9:53 AM 45.0 °F 41.8 °F 39.0 °F 80% 29.91 in 10.0 mi SSE 5.8 mph - N/A   Mostly Cloudy
10:53 AM 52.0 °F - 39.0 °F 61% 29.89 in 10.0 mi SE 3.5 mph - N/A   Clear
11:53 AM 55.0 °F - 39.9 °F 57% 29.87 in 10.0 mi SSW 11.5 mph - N/A   Clear
12:53 PM 55.0 °F - 39.0 °F 55% 29.87 in 10.0 mi South 8.1 mph - N/A   Mostly Cloudy
1:53 PM 55.9 °F - 39.9 °F 55% 29.83 in 10.0 mi South 10.4 mph 20.7 mph 0.00 in   Scattered Clouds
2:53 PM 59.0 °F - 39.9 °F 49% 29.80 in 10.0 mi South 10.4 mph - N/A   Partly Cloudy
3:53 PM 59.0 °F - 41.0 °F 51% 29.83 in 10.0 mi SW 3.5 mph - N/A   Clear
4:53 PM 59.0 °F - 42.1 °F 53% 29.85 in 10.0 mi North 3.5 mph - N/A   Clear
5:53 PM 57.0 °F - 44.1 °F 62% 29.87 in 10.0 mi North 5.8 mph - N/A   Mostly Cloudy
6:53 PM 52.0 °F - 44.1 °F 74% 29.92 in 10.0 mi North 17.3 mph 26.5 mph N/A   Overcast
7:53 PM 46.9 °F - 39.9 °F 77% 29.99 in 10.0 mi North 15.0 mph 27.6 mph N/A   Overcast
8:53 PM 43.0 °F 36.4 °F 37.9 °F 82% 30.05 in 10.0 mi NNW 12.7 mph - N/A   Clear
9:10 PM 43.0 °F 35.7 °F 37.9 °F 82% 30.04 in 10.0 mi NNW 15.0 mph - N/A   Mostly Cloudy
9:17 PM 42.1 °F 34.9 °F 37.0 °F 82% 30.05 in 10.0 mi NNW 13.8 mph 23.0 mph N/A   Scattered Clouds
9:53 PM 41.0 °F 33.1 °F 36.0 °F 82% 30.09 in 10.0 mi NNW 15.0 mph - N/A   Clear
10:53 PM 41.0 °F 34.3 °F 37.0 °F 86% 30.13 in 10.0 mi NNW 11.5 mph - N/A   Overcast
11:01 PM 41.0 °F 33.9 °F 37.0 °F 86% 30.12 in 10.0 mi NNW 12.7 mph - N/A   Overcast
11:36 PM 42.1 °F 33.9 °F 37.9 °F 85% 30.15 in 10.0 mi NNW 17.3 mph 23.0 mph N/A   Overcast
11:53 PM 42.1 °F 34.9 °F 37.0 °F 82% 30.15 in 10.0 mi NNW 13.8 mph - N/A   Overcast